When you browse on this site, cookies collect data to enhance your experience and personalize the content and advertising you see.
Visit our Privacy Policy to learn more. By continuing to use the site, you agree to this use of cookies and data.
  • In Czech Republic
  • List of Countries
  • For 7 days
  • Water Temperature
  • Satellite Maps
  • Weather Map
  • Weather Widgets
  • user-avatar
    Login

    Hourly Weather Campobasso

    Today, 15 December, Saturday

    Time Temperature Precipitation Wind Pressure Humidity
    00:00 +3°C° 0.4 mm 3 mps 695 mmHg 91%
    01:00 +4°C° 0 mm 2 mps 695 mmHg 91%
    02:00 +4°C° 0.7 mm 2 mps 695 mmHg 91%
    03:00 +3°C° 0.7 mm 3 mps 695 mmHg 90%
    04:00 +3°C° 0.7 mm 4 mps 695 mmHg 90%
    05:00 +1°C° 1 mm 4 mps 695 mmHg 89%
    06:00 +1°C° 1 mm 4 mps 695 mmHg 89%
    07:00 +1°C° 1 mm 4 mps 695 mmHg 88%
    08:00 0°C° 0.7 mm 4 mps 695 mmHg 87%
    09:00 0°C° 0.7 mm 4 mps 695 mmHg 86%
    10:00 0°C° 0.7 mm 4 mps 696 mmHg 85%
    11:00 +1°C° 0.1 mm 4 mps 696 mmHg 83%
    12:00 +1°C° 0.1 mm 4 mps 696 mmHg 82%
    13:00 +1°C° 0.1 mm 4 mps 696 mmHg 81%
    14:00 +1°C° 0 mm 5 mps 696 mmHg 80%
    15:00 +1°C° 0 mm 5 mps 697 mmHg 79%
    16:00 +1°C° 0 mm 5 mps 697 mmHg 79%
    17:00 0°C° 0 mm 5 mps 697 mmHg 79%
    18:00 -1°C° 0 mm 4 mps 697 mmHg 78%
    19:00 -2°C° 0 mm 4 mps 698 mmHg 78%
    20:00 -3°C° 0 mm 4 mps 698 mmHg 77%
    21:00 -3°C° 0 mm 4 mps 698 mmHg 77%
    22:00 -3°C° 0 mm 4 mps 698 mmHg 76%
    23:00 -2°C° 0 mm 3 mps 699 mmHg 75%

    Tomorrow, 16 December, Sunday

    Time Temperature Precipitation Wind Pressure Humidity
    00:00 -2°C° 0 mm 3 mps 699 mmHg 74%
    01:00 -4°C° 0 mm 3 mps 699 mmHg 74%
    02:00 -4°C° 0 mm 3 mps 699 mmHg 73%
    03:00 -2°C° 0 mm 3 mps 699 mmHg 72%
    04:00 -2°C° 0 mm 2 mps 699 mmHg 71%
    05:00 -2°C° 0 mm 2 mps 699 mmHg 70%
    06:00 -2°C° 0 mm 2 mps 699 mmHg 69%
    07:00 -2°C° 0 mm 2 mps 700 mmHg 68%
    08:00 -1°C° 0 mm 2 mps 700 mmHg 65%
    09:00 +3°C° 0 mm 1 mps 701 mmHg 62%
    10:00 +4°C° 0 mm 1 mps 701 mmHg 59%
    11:00 +5°C° 0 mm 1 mps 701 mmHg 58%
    12:00 +6°C° 0 mm 1 mps 701 mmHg 57%
    13:00 +7°C° 0 mm 1 mps 701 mmHg 56%
    14:00 +6°C° 0 mm 1 mps 701 mmHg 60%
    15:00 +5°C° 0 mm 1 mps 701 mmHg 63%
    16:00 +5°C° 0 mm 1 mps 701 mmHg 67%
    17:00 +4°C° 0 mm 1 mps 701 mmHg 71%
    18:00 +3°C° 0 mm 1 mps 701 mmHg 74%
    19:00 +3°C° 0 mm 1 mps 701 mmHg 77%
    20:00 +2°C° 0 mm 2 mps 701 mmHg 79%
    21:00 +2°C° 0 mm 2 mps 701 mmHg 81%
    22:00 +2°C° 0 mm 2 mps 700 mmHg 83%
    23:00 +2°C° 0 mm 2 mps 700 mmHg 82%

    Day after tomorrow, 17 December, Monday

    Time Temperature Precipitation Wind Pressure Humidity
    00:00 +1°C° 0 mm 3 mps 699 mmHg 82%
    01:00 +2°C° 0 mm 3 mps 699 mmHg 82%
    02:00 +2°C° 0.2 mm 3 mps 698 mmHg 83%
    03:00 +2°C° 0.2 mm 3 mps 697 mmHg 85%
    04:00 +3°C° 0.2 mm 3 mps 697 mmHg 87%
    05:00 +4°C° 0.1 mm 2 mps 697 mmHg 89%
    06:00 +4°C° 0.1 mm 2 mps 696 mmHg 91%
    07:00 +5°C° 0.1 mm 1 mps 696 mmHg 93%
    08:00 +6°C° 0.1 mm 1 mps 696 mmHg 92%
    09:00 +7°C° 0.1 mm 1 mps 697 mmHg 92%
    10:00 +8°C° 0.1 mm 1 mps 697 mmHg 91%
    11:00 +7°C° 0.3 mm 2 mps 697 mmHg 90%
    12:00 +7°C° 0.3 mm 2 mps 696 mmHg 90%
    13:00 +7°C° 0.3 mm 2 mps 696 mmHg 89%
    14:00 +7°C° 0.5 mm 2 mps 696 mmHg 90%
    15:00 +7°C° 0.5 mm 3 mps 696 mmHg 91%
    16:00 +5°C° 0.5 mm 3 mps 697 mmHg 91%
    17:00 +5°C° 0.8 mm 3 mps 697 mmHg 92%
    18:00 +5°C° 0.8 mm 4 mps 697 mmHg 92%
    19:00 +3°C° 0.8 mm 5 mps 698 mmHg 92%
    20:00 +3°C° 0.2 mm 5 mps 698 mmHg 91%
    21:00 +3°C° 0.2 mm 5 mps 698 mmHg 89%
    22:00 +3°C° 0.2 mm 5 mps 699 mmHg 88%
    23:00 +2°C° 0 mm 5 mps 699 mmHg 87%

    18 December, Tuesday

    Time Temperature Precipitation Wind Pressure Humidity
    00:00 +2°C° 0 mm 5 mps 699 mmHg 85%
    01:00 +1°C° 0 mm 5 mps 700 mmHg 83%
    02:00 +1°C° 0 mm 5 mps 700 mmHg 83%
    03:00 +1°C° 0 mm 6 mps 700 mmHg 82%
    04:00 +1°C° 0 mm 6 mps 700 mmHg 82%
    05:00 +1°C° 0 mm 6 mps 701 mmHg 81%
    06:00 +1°C° 0 mm 6 mps 701 mmHg 81%
    07:00 0°C° 0 mm 7 mps 702 mmHg 80%
    08:00 +2°C° 0 mm 7 mps 702 mmHg 77%
    09:00 +2°C° 0 mm 7 mps 703 mmHg 74%
    10:00 +3°C° 0 mm 7 mps 704 mmHg 71%
    11:00 +4°C° 0 mm 7 mps 704 mmHg 69%
    12:00 +4°C° 0 mm 7 mps 704 mmHg 67%
    13:00 +4°C° 0 mm 7 mps 704 mmHg 65%
    14:00 +4°C° 0 mm 6 mps 704 mmHg 68%
    15:00 +3°C° 0 mm 5 mps 704 mmHg 71%
    16:00 +4°C° 0 mm 4 mps 704 mmHg 73%
    17:00 +3°C° 0 mm 4 mps 704 mmHg 75%
    18:00 +2°C° 0 mm 3 mps 704 mmHg 76%
    19:00 +1°C° 0 mm 3 mps 704 mmHg 77%
    20:00 +1°C° 0 mm 3 mps 704 mmHg 75%
    21:00 +2°C° 0 mm 2 mps 704 mmHg 72%
    22:00 +2°C° 0 mm 2 mps 704 mmHg 70%
    23:00 +2°C° 0 mm 2 mps 704 mmHg 67%

    19 December, Wednesday

    Time Temperature Precipitation Wind Pressure Humidity
    00:00 +1°C° 0 mm 2 mps 704 mmHg 64%
    01:00 +1°C° 0 mm 2 mps 704 mmHg 62%
    02:00 +1°C° 0 mm 2 mps 704 mmHg 60%
    03:00 +1°C° 0 mm 2 mps 703 mmHg 57%
    04:00 +1°C° 0 mm 2 mps 703 mmHg 55%
    05:00 +2°C° 0 mm 1 mps 703 mmHg 54%
    06:00 +2°C° 0 mm 1 mps 703 mmHg 53%
    07:00 +2°C° 0 mm 1 mps 703 mmHg 52%
    08:00 +3°C° 0 mm 1 mps 704 mmHg 51%
    09:00 +5°C° 0 mm 1 mps 704 mmHg 51%
    10:00 +6°C° 0 mm 1 mps 704 mmHg 50%
    11:00 +7°C° 0 mm 1 mps 704 mmHg 50%
    12:00 +8°C° 0 mm 1 mps 704 mmHg 51%
    13:00 +9°C° 0 mm 1 mps 704 mmHg 52%
    14:00 +8°C° 0 mm 1 mps 703 mmHg 57%
    15:00 +7°C° 0 mm 1 mps 703 mmHg 62%
    16:00 +7°C° 0 mm 1 mps 703 mmHg 67%
    17:00 +6°C° 0 mm 1 mps 703 mmHg 69%
    18:00 +6°C° 0 mm 1 mps 703 mmHg 71%
    19:00 +5°C° 0 mm 1 mps 703 mmHg 73%
    20:00 +4°C° 0 mm 2 mps 703 mmHg 74%
    21:00 +3°C° 0 mm 2 mps 702 mmHg 75%
    22:00 +3°C° 0 mm 2 mps 702 mmHg 76%
    23:00 +3°C° 0 mm 2 mps 702 mmHg 79%

    20 December, Thursday

    Time Temperature Precipitation Wind Pressure Humidity
    00:00 +3°C° 0 mm 2 mps 702 mmHg 81%
    01:00 +2°C° 0 mm 2 mps 701 mmHg 83%
    02:00 +2°C° 0 mm 3 mps 701 mmHg 85%
    03:00 +2°C° 0 mm 3 mps 701 mmHg 86%
    04:00 +2°C° 0 mm 3 mps 701 mmHg 88%
    05:00 +2°C° 0.1 mm 3 mps 701 mmHg 89%
    06:00 +3°C° 0.1 mm 3 mps 700 mmHg 89%
    07:00 +3°C° 0.1 mm 3 mps 700 mmHg 90%
    08:00 +4°C° 0.3 mm 3 mps 701 mmHg 89%
    09:00 +5°C° 0.3 mm 2 mps 701 mmHg 88%
    10:00 +6°C° 0.3 mm 2 mps 701 mmHg 87%
    11:00 +7°C° 0 mm 3 mps 701 mmHg 84%
    12:00 +8°C° 0 mm 3 mps 700 mmHg 81%
    13:00 +8°C° 0 mm 3 mps 700 mmHg 78%
    14:00 +8°C° 0 mm 3 mps 700 mmHg 80%
    15:00 +8°C° 0 mm 3 mps 700 mmHg 82%
    16:00 +7°C° 0 mm 2 mps 700 mmHg 84%
    17:00 +6°C° 0 mm 2 mps 700 mmHg 86%
    18:00 +5°C° 0 mm 2 mps 700 mmHg 88%
    19:00 +5°C° 0 mm 2 mps 700 mmHg 91%
    20:00 +5°C° 0.1 mm 1 mps 700 mmHg 91%
    21:00 +5°C° 0.1 mm 1 mps 700 mmHg 91%
    22:00 +5°C° 0.1 mm 1 mps 700 mmHg 91%
    23:00 +5°C° 0.2 mm 1 mps 700 mmHg 91%
    Show more